Tracking 30509 objects as of 21-May-2025
HD Live streaming from Space Station
objects crossing your sky now

SOLRAD 3/INJUN 1

Track SOLRAD 3/INJUN 1 now!
10-day predictions
SOLRAD 3/INJUN 1 is classified as:


NORAD ID: 117
Int'l Code: 1961-015B
Perigee: 875.8 km
Apogee: 994.8 km
Inclination: 66.8 °
Period: 103.6 minutes
Semi major axis: 7306 km
RCS: 0.4448 m2 (medium)
Launch date: June 29, 1961
Source: United States (US)
Launch site: AIR FORCE EASTERN TEST RANGE (AFETR)
Your satellite tracking list
Your tracking list is empty




NASA's NSSDC Master Catalog

Two Line Element Set (TLE):
1 00117U 61015B   25141.56859585 -.00000019  00000-0  45355-4 0  9993
2 00117  66.8127 239.8148 0081499 216.0156 143.5416 13.90133270239623
Source of the keplerian elements: AFSPC